Time,TemperatureF,DewpointF,PressureIn,WindDirection,WindDirectionDegrees,WindSpeedMPH,WindSpeedGustMPH,Humidity,HourlyPrecipIn,Conditions,Clouds,dailyrainin,SolarRadiationWatts/m^2,SoftwareType,DateUTC
2013-03-09 00:02:00,51.0,29.0,-100.00,NE,41,2.0,5.0,42,0.00,,,0.00,0.000000,,2013-03-09 06:02:00,
2013-03-09 00:11:00,51.0,29.0,-100.00,NE,41,2.0,5.0,42,0.00,,,0.00,0.000000,,2013-03-09 06:11:00,
2013-03-09 00:32:00,50.0,30.0,-100.00,ESE,106,2.0,5.0,46,0.00,,,0.00,0.000000,,2013-03-09 06:32:00,
2013-03-09 00:42:00,50.0,30.0,-100.00,ESE,106,2.0,5.0,46,0.00,,,0.00,0.000000,,2013-03-09 06:42:00,
2013-03-09 00:52:00,50.0,30.0,-100.00,ESE,106,2.0,5.0,46,0.00,,,0.00,0.000000,,2013-03-09 06:52:00,
2013-03-09 01:01:00,50.0,30.0,-100.00,ESE,106,2.0,5.0,46,0.00,,,0.00,0.000000,,2013-03-09 07:01:00,
2013-03-09 01:11:00,50.0,30.0,-100.00,ESE,106,2.0,5.0,46,0.00,,,0.00,0.000000,,2013-03-09 07:11:00,
2013-03-09 01:32:00,48.0,32.0,-100.00,East,95,2.0,6.0,54,0.00,,,0.00,0.000000,,2013-03-09 07:32:00,
2013-03-09 01:42:00,48.0,32.0,-100.00,East,95,2.0,6.0,54,0.00,,,0.00,0.000000,,2013-03-09 07:42:00,
2013-03-09 01:52:00,48.0,32.0,-100.00,East,95,2.0,6.0,54,0.00,,,0.00,0.000000,,2013-03-09 07:52:00,
2013-03-09 02:01:00,48.0,32.0,-100.00,East,95,2.0,6.0,54,0.00,,,0.00,0.000000,,2013-03-09 08:01:00,
2013-03-09 02:11:00,48.0,32.0,-100.00,East,95,2.0,6.0,54,0.00,,,0.00,0.000000,,2013-03-09 08:11:00,
2013-03-09 02:42:00,48.0,32.0,-100.00,NNW,331,0.0,5.0,53,0.00,,,0.00,0.000000,,2013-03-09 08:42:00,
2013-03-09 02:52:00,48.0,32.0,-100.00,NNW,331,0.0,5.0,53,0.00,,,0.00,0.000000,,2013-03-09 08:52:00,
2013-03-09 03:01:00,48.0,32.0,-100.00,NNW,331,0.0,5.0,53,0.00,,,0.00,0.000000,,2013-03-09 09:01:00,
2013-03-09 03:12:00,48.0,32.0,-100.00,NNW,331,0.0,5.0,53,0.00,,,0.00,0.000000,,2013-03-09 09:12:00,
2013-03-09 03:32:00,46.0,35.0,-100.00,East,84,2.0,5.0,66,0.00,,,0.00,0.000000,,2013-03-09 09:32:00,
2013-03-09 03:42:00,46.0,35.0,-100.00,East,84,2.0,5.0,66,0.00,,,0.00,0.000000,,2013-03-09 09:42:00,
2013-03-09 03:52:00,46.0,35.0,-100.00,East,84,2.0,5.0,66,0.00,,,0.00,0.000000,,2013-03-09 09:52:00,
2013-03-09 04:01:00,46.0,35.0,-100.00,East,84,2.0,5.0,66,0.00,,,0.00,0.000000,,2013-03-09 10:01:00,
2013-03-09 04:11:00,46.0,35.0,-100.00,East,84,2.0,5.0,66,0.00,,,0.00,0.000000,,2013-03-09 10:11:00,
2013-03-09 04:42:00,46.0,35.0,-100.00,NE,55,1.0,5.0,65,0.00,,,0.00,0.000000,,2013-03-09 10:42:00,
2013-03-09 04:52:00,46.0,35.0,-100.00,NE,55,1.0,5.0,65,0.00,,,0.00,0.000000,,2013-03-09 10:52:00,
2013-03-09 05:01:00,46.0,35.0,-100.00,NE,55,1.0,5.0,65,0.00,,,0.00,0.000000,,2013-03-09 11:01:00,
2013-03-09 05:11:00,46.0,35.0,-100.00,NE,55,1.0,5.0,65,0.00,,,0.00,0.000000,,2013-03-09 11:11:00,
2013-03-09 05:32:00,44.0,34.0,-100.00,ENE,65,2.0,7.0,69,0.00,,,0.00,0.000000,,2013-03-09 11:32:00,
2013-03-09 05:42:00,44.0,34.0,-100.00,ENE,65,2.0,7.0,69,0.00,,,0.00,0.000000,,2013-03-09 11:42:00,
2013-03-09 05:52:00,44.0,34.0,-100.00,ENE,65,2.0,7.0,69,0.00,,,0.00,0.000000,,2013-03-09 11:52:00,
2013-03-09 06:01:00,44.0,34.0,-100.00,ENE,65,2.0,7.0,69,0.00,,,0.00,0.000000,,2013-03-09 12:01:00,
2013-03-09 06:11:00,44.0,34.0,-100.00,ENE,65,2.0,7.0,69,0.00,,,0.00,0.000000,,2013-03-09 12:11:00,
2013-03-09 06:32:00,45.0,34.0,-100.00,East,85,3.0,6.0,66,0.00,,,0.00,1.000000,,2013-03-09 12:32:00,
2013-03-09 06:42:00,45.0,34.0,-100.00,East,85,3.0,6.0,66,0.00,,,0.00,1.000000,,2013-03-09 12:42:00,
2013-03-09 06:52:00,45.0,34.0,-100.00,East,85,3.0,6.0,66,0.00,,,0.00,1.000000,,2013-03-09 12:52:00,
2013-03-09 07:02:00,45.0,34.0,-100.00,East,85,3.0,6.0,66,0.00,,,0.00,1.000000,,2013-03-09 13:02:00,
2013-03-09 07:11:00,45.0,34.0,-100.00,East,85,3.0,6.0,66,0.00,,,0.00,1.000000,,2013-03-09 13:11:00,
2013-03-09 07:32:00,49.0,36.0,-100.00,East,89,3.0,7.0,61,0.00,,,0.00,65.000000,,2013-03-09 13:32:00,
2013-03-09 07:42:00,49.0,36.0,-100.00,East,89,3.0,7.0,61,0.00,,,0.00,65.000000,,2013-03-09 13:42:00,
2013-03-09 07:52:00,49.0,36.0,-100.00,East,89,3.0,7.0,61,0.00,,,0.00,65.000000,,2013-03-09 13:52:00,
2013-03-09 08:01:00,49.0,36.0,-100.00,East,89,3.0,7.0,61,0.00,,,0.00,65.000000,,2013-03-09 14:01:00,
2013-03-09 08:11:00,49.0,36.0,-100.00,East,89,3.0,7.0,61,0.00,,,0.00,65.000000,,2013-03-09 14:11:00,
2013-03-09 08:32:00,53.0,38.0,-100.00,ENE,68,2.0,7.0,56,0.00,,,0.00,109.000000,,2013-03-09 14:32:00,
2013-03-09 08:42:00,53.0,38.0,-100.00,ENE,68,2.0,7.0,56,0.00,,,0.00,109.000000,,2013-03-09 14:42:00,
2013-03-09 08:52:00,53.0,38.0,-100.00,ENE,68,2.0,7.0,56,0.00,,,0.00,109.000000,,2013-03-09 14:52:00,
2013-03-09 09:02:00,53.0,38.0,-100.00,ENE,68,2.0,7.0,56,0.00,,,0.00,109.000000,,2013-03-09 15:02:00,
2013-03-09 09:11:00,53.0,38.0,-100.00,ENE,68,2.0,7.0,56,0.00,,,0.00,109.000000,,2013-03-09 15:11:00,
2013-03-09 09:42:00,61.0,41.0,-100.00,ESE,115,3.0,6.0,48,0.00,,,0.00,330.000000,,2013-03-09 15:42:00,
2013-03-09 09:52:00,61.0,41.0,-100.00,ESE,115,3.0,6.0,48,0.00,,,0.00,330.000000,,2013-03-09 15:52:00,
2013-03-09 10:01:00,61.0,41.0,-100.00,ESE,115,3.0,6.0,48,0.00,,,0.00,330.000000,,2013-03-09 16:01:00,
2013-03-09 10:11:00,61.0,41.0,-100.00,ESE,115,3.0,6.0,48,0.00,,,0.00,330.000000,,2013-03-09 16:11:00,
2013-03-09 10:32:00,69.0,39.0,-100.00,SE,146,6.0,17.0,34,0.00,,,0.00,648.000000,,2013-03-09 16:32:00,
2013-03-09 10:42:00,69.0,39.0,-100.00,SE,146,6.0,17.0,34,0.00,,,0.00,648.000000,,2013-03-09 16:42:00,
2013-03-09 10:52:00,69.0,39.0,-100.00,SE,146,6.0,17.0,34,0.00,,,0.00,648.000000,,2013-03-09 16:52:00,
2013-03-09 11:01:00,69.0,39.0,-100.00,SE,146,6.0,17.0,34,0.00,,,0.00,648.000000,,2013-03-09 17:01:00,
2013-03-09 11:11:00,69.0,39.0,-100.00,SE,146,6.0,17.0,34,0.00,,,0.00,648.000000,,2013-03-09 17:11:00,
2013-03-09 11:32:00,73.0,39.0,-100.00,SSE,154,4.0,17.0,29,0.00,,,0.00,772.000000,,2013-03-09 17:32:00,
2013-03-09 11:42:00,73.0,39.0,-100.00,SSE,154,4.0,17.0,29,0.00,,,0.00,772.000000,,2013-03-09 17:42:00,
2013-03-09 11:52:00,73.0,39.0,-100.00,SSE,154,4.0,17.0,29,0.00,,,0.00,772.000000,,2013-03-09 17:52:00,
2013-03-09 12:02:00,73.0,39.0,-100.00,SSE,154,4.0,17.0,29,0.00,,,0.00,772.000000,,2013-03-09 18:02:00,
2013-03-09 12:11:00,73.0,39.0,-100.00,SSE,154,4.0,17.0,29,0.00,,,0.00,772.000000,,2013-03-09 18:11:00,
2013-03-09 12:32:00,74.0,37.0,-100.00,SE,124,6.0,11.0,26,0.00,,,0.00,817.000000,,2013-03-09 18:32:00,
2013-03-09 12:42:00,74.0,37.0,-100.00,SE,124,6.0,11.0,26,0.00,,,0.00,817.000000,,2013-03-09 18:42:00,
2013-03-09 12:52:00,74.0,37.0,-100.00,SE,124,6.0,11.0,26,0.00,,,0.00,817.000000,,2013-03-09 18:52:00,
2013-03-09 13:01:00,74.0,37.0,-100.00,SE,124,6.0,11.0,26,0.00,,,0.00,817.000000,,2013-03-09 19:01:00,
2013-03-09 13:11:00,74.0,37.0,-100.00,SE,124,6.0,11.0,26,0.00,,,0.00,817.000000,,2013-03-09 19:11:00,
2013-03-09 13:42:00,73.0,39.0,-100.00,SE,144,4.0,12.0,29,0.00,,,0.00,600.000000,,2013-03-09 19:42:00,
2013-03-09 13:52:00,73.0,39.0,-100.00,SE,144,4.0,12.0,29,0.00,,,0.00,600.000000,,2013-03-09 19:52:00,
2013-03-09 14:01:00,73.0,39.0,-100.00,SE,144,4.0,12.0,29,0.00,,,0.00,600.000000,,2013-03-09 20:01:00,
2013-03-09 14:11:00,73.0,39.0,-100.00,SE,144,4.0,12.0,29,0.00,,,0.00,600.000000,,2013-03-09 20:11:00,
2013-03-09 14:42:00,73.0,39.0,-100.00,SSE,165,3.0,9.0,29,0.00,,,0.00,381.000000,,2013-03-09 20:42:00,
2013-03-09 14:52:00,73.0,39.0,-100.00,SSE,165,3.0,9.0,29,0.00,,,0.00,381.000000,,2013-03-09 20:52:00,
2013-03-09 15:02:00,73.0,39.0,-100.00,SSE,165,3.0,9.0,29,0.00,,,0.00,381.000000,,2013-03-09 21:02:00,
2013-03-09 15:12:00,73.0,39.0,-100.00,SSE,165,3.0,9.0,29,0.00,,,0.00,381.000000,,2013-03-09 21:12:00,
2013-03-09 15:32:00,72.0,41.0,-100.00,SSE,150,3.0,8.0,32,0.00,,,0.00,258.000000,,2013-03-09 21:32:00,
2013-03-09 15:42:00,72.0,41.0,-100.00,SSE,150,3.0,8.0,32,0.00,,,0.00,258.000000,,2013-03-09 21:42:00,
2013-03-09 15:52:00,72.0,41.0,-100.00,SSE,150,3.0,8.0,32,0.00,,,0.00,258.000000,,2013-03-09 21:52:00,
2013-03-09 16:01:00,72.0,41.0,-100.00,SSE,150,3.0,8.0,32,0.00,,,0.00,258.000000,,2013-03-09 22:01:00,
2013-03-09 16:11:00,72.0,41.0,-100.00,SSE,150,3.0,8.0,32,0.00,,,0.00,258.000000,,2013-03-09 22:11:00,
2013-03-09 16:42:00,68.0,43.0,-100.00,South,189,5.0,12.0,41,0.00,,,0.00,173.000000,,2013-03-09 22:42:00,
2013-03-09 16:52:00,68.0,43.0,-100.00,South,189,5.0,12.0,41,0.00,,,0.00,173.000000,,2013-03-09 22:52:00,
2013-03-09 17:01:00,68.0,43.0,-100.00,South,189,5.0,12.0,41,0.00,,,0.00,173.000000,,2013-03-09 23:01:00,
2013-03-09 17:11:00,68.0,43.0,-100.00,South,189,5.0,12.0,41,0.00,,,0.00,173.000000,,2013-03-09 23:11:00,
2013-03-09 17:32:00,64.0,43.0,-100.00,SSW,193,4.0,10.0,46,0.00,,,0.00,84.000000,,2013-03-09 23:32:00,
2013-03-09 17:42:00,64.0,43.0,-100.00,SSW,193,4.0,10.0,46,0.00,,,0.00,84.000000,,2013-03-09 23:42:00,
2013-03-09 17:52:00,64.0,43.0,-100.00,SSW,193,4.0,10.0,46,0.00,,,0.00,84.000000,,2013-03-09 23:52:00,
2013-03-09 18:01:00,64.0,43.0,-100.00,SSW,193,4.0,10.0,46,0.00,,,0.00,84.000000,,2013-03-10 00:01:00,
2013-03-09 18:11:00,64.0,43.0,-100.00,SSW,193,4.0,10.0,46,0.00,,,0.00,84.000000,,2013-03-10 00:11:00,
2013-03-09 18:32:00,60.0,44.0,-100.00,South,189,3.0,7.0,55,0.00,,,0.00,9.000000,,2013-03-10 00:32:00,
2013-03-09 18:43:00,60.0,44.0,-100.00,South,189,3.0,7.0,55,0.00,,,0.00,9.000000,,2013-03-10 00:43:00,
2013-03-09 18:52:00,60.0,44.0,-100.00,South,189,3.0,7.0,55,0.00,,,0.00,9.000000,,2013-03-10 00:52:00,
2013-03-09 19:01:00,60.0,44.0,-100.00,South,189,3.0,7.0,55,0.00,,,0.00,9.000000,,2013-03-10 01:01:00,
2013-03-09 19:11:00,60.0,44.0,-100.00,South,189,3.0,7.0,55,0.00,,,0.00,9.000000,,2013-03-10 01:11:00,
2013-03-09 19:42:00,56.0,45.0,-100.00,SSE,161,3.0,6.0,66,0.00,,,-99.99,0.000000,,2013-03-10 01:42:00,
2013-03-09 19:52:00,56.0,45.0,-100.00,SSE,161,3.0,6.0,66,0.00,,,-99.99,0.000000,,2013-03-10 01:52:00,
2013-03-09 20:01:00,56.0,45.0,-100.00,SSE,161,3.0,6.0,66,0.00,,,-99.99,0.000000,,2013-03-10 02:01:00,
2013-03-09 20:11:00,56.0,45.0,-100.00,SSE,161,3.0,6.0,66,0.00,,,-99.99,0.000000,,2013-03-10 02:11:00,
2013-03-09 20:42:00,58.0,44.0,-100.00,SE,146,5.0,10.0,60,0.00,,,-99.99,0.000000,,2013-03-10 02:42:00,
2013-03-09 20:52:00,58.0,44.0,-100.00,SE,146,5.0,10.0,60,0.00,,,-99.99,0.000000,,2013-03-10 02:52:00,
2013-03-09 21:02:00,58.0,44.0,-100.00,SE,146,5.0,10.0,60,0.00,,,-99.99,0.000000,,2013-03-10 03:02:00,
2013-03-09 21:11:00,58.0,44.0,-100.00,SE,146,5.0,10.0,60,0.00,,,-99.99,0.000000,,2013-03-10 03:11:00,
2013-03-09 21:32:00,57.0,46.0,-100.00,South,172,3.0,12.0,66,0.00,,,0.00,0.000000,,2013-03-10 03:32:00,
2013-03-09 21:42:00,57.0,46.0,-100.00,South,172,3.0,12.0,66,0.00,,,0.00,0.000000,,2013-03-10 03:42:00,
2013-03-09 21:52:00,57.0,46.0,-100.00,South,172,3.0,12.0,66,0.00,,,0.00,0.000000,,2013-03-10 03:52:00,
2013-03-09 22:01:00,57.0,46.0,-100.00,South,172,3.0,12.0,66,0.00,,,0.00,0.000000,,2013-03-10 04:01:00,
2013-03-09 22:11:00,57.0,46.0,-100.00,South,172,3.0,12.0,66,0.00,,,0.00,0.000000,,2013-03-10 04:11:00,
2013-03-09 22:32:00,55.0,46.0,-100.00,SE,144,2.0,8.0,72,0.00,,,0.00,0.000000,,2013-03-10 04:32:00,
2013-03-09 22:42:00,55.0,46.0,-100.00,SE,144,2.0,8.0,72,0.00,,,0.00,0.000000,,2013-03-10 04:42:00,
2013-03-09 22:52:00,55.0,46.0,-100.00,SE,144,2.0,8.0,72,0.00,,,0.00,0.000000,,2013-03-10 04:52:00,
2013-03-09 23:01:00,55.0,46.0,-100.00,SE,144,2.0,8.0,72,0.00,,,0.00,0.000000,,2013-03-10 05:01:00,
2013-03-09 23:11:00,55.0,46.0,-100.00,SE,144,2.0,8.0,72,0.00,,,0.00,0.000000,,2013-03-10 05:11:00,
2013-03-09 23:32:00,54.0,44.0,-100.00,SE,135,5.0,9.0,70,0.00,,,0.00,0.000000,,2013-03-10 05:32:00,
2013-03-09 23:42:00,54.0,44.0,-100.00,SE,135,5.0,9.0,70,0.00,,,0.00,0.000000,,2013-03-10 05:42:00,
2013-03-09 23:52:00,54.0,44.0,-100.00,SE,135,5.0,9.0,70,0.00,,,0.00,0.000000,,2013-03-10 05:52:00,